DLH590 EDDF-HKJK

Flight info

Callsign DLH590
Flight time N/A
Altitude 37000
Route CINDY8S/18 CINDY Z74 LAMPU DCT NOMBO Y161 MAH DCT VAVOR DCT RADIZ DCT NIPEL DCT ELTIB DCT GLOMY DCT PETAK DCT DIMIS DCT IPTES UL604 TRL DCT SALUN N705 BOPIX N710 TAKRI P751 LXR M999 ELELI/N0486F390 M999 JDW G650 RASKA/N0492F380 G650 KONET M308 AVUNI/N0487F400 M308 GETOL UM308 RUDOL/N0489F390 UM308 LOTAS LOTAS3A
Aircraft A359/H-SDE2E3GHIJ3J4J5LM1ORWXY/LB1D1

Departure

Time 2026-05-06 16:24
Airport Frankfurt Main Airport (EDDF)

Arrival

Time N/A
Airport Jomo Kenyatta International Airport (HKJK)
Time Latitude Longitude Altitude Speed Heading
2026-05-06 15:27 50.04752 8.57123 362 ft 0 kts 120°
2026-05-06 15:28 50.04751 8.57125 362 ft 0 kts 120°
2026-05-06 16:08 50.04752 8.57124 362 ft 2 kts 120°
2026-05-06 16:08 50.04764 8.57091 362 ft 4 kts 122°
2026-05-06 16:08 50.04780 8.57057 364 ft 4 kts 137°
2026-05-06 16:09 50.04800 8.57040 363 ft 4 kts 195°
2026-05-06 16:09 50.04797 8.57037 364 ft 4 kts 204°
2026-05-06 16:09 50.04782 8.57025 362 ft 0 kts 205°
2026-05-06 16:14 50.04769 8.57016 370 ft 5 kts 205°
2026-05-06 16:15 50.04723 8.56983 370 ft 8 kts 204°
2026-05-06 16:15 50.04666 8.56943 370 ft 9 kts 204°
2026-05-06 16:15 50.04602 8.56910 367 ft 10 kts 194°
2026-05-06 16:15 50.04543 8.56889 370 ft 8 kts 193°
2026-05-06 16:16 50.04489 8.56869 365 ft 8 kts 194°
2026-05-06 16:16 50.04448 8.56812 373 ft 8 kts 247°
2026-05-06 16:16 50.04425 8.56719 369 ft 11 kts 250°
2026-05-06 16:16 50.04394 8.56588 370 ft 15 kts 251°
2026-05-06 16:17 50.04354 8.56418 368 ft 19 kts 249°
2026-05-06 16:17 50.04303 8.56204 369 ft 23 kts 250°
2026-05-06 16:17 50.04290 8.56149 369 ft 0 kts 250°
2026-05-06 16:18 50.04286 8.56132 369 ft 6 kts 249°
2026-05-06 16:18 50.04261 8.56031 369 ft 14 kts 249°
2026-05-06 16:19 50.04218 8.55854 365 ft 21 kts 249°
2026-05-06 16:19 50.04163 8.55622 367 ft 23 kts 249°
2026-05-06 16:19 50.04108 8.55387 364 ft 23 kts 248°
2026-05-06 16:19 50.04054 8.55164 364 ft 21 kts 249°
2026-05-06 16:20 50.04002 8.54947 365 ft 21 kts 250°
2026-05-06 16:20 50.03948 8.54722 363 ft 23 kts 250°
2026-05-06 16:20 50.03892 8.54489 362 ft 23 kts 250°
2026-05-06 16:20 50.03826 8.54296 360 ft 20 kts 236°
2026-05-06 16:21 50.03767 8.54100 359 ft 20 kts 247°
2026-05-06 16:21 50.03720 8.53896 358 ft 20 kts 250°
2026-05-06 16:21 50.03672 8.53687 358 ft 21 kts 250°
2026-05-06 16:21 50.03618 8.53476 355 ft 21 kts 249°
2026-05-06 16:22 50.03567 8.53261 354 ft 21 kts 249°
2026-05-06 16:22 50.03515 8.53044 355 ft 22 kts 249°
2026-05-06 16:22 50.03458 8.52824 352 ft 22 kts 246°
2026-05-06 16:22 50.03417 8.52661 349 ft 9 kts 248°
2026-05-06 16:23 50.03377 8.52597 352 ft 8 kts 202°
2026-05-06 16:23 50.03339 8.52593 347 ft 0 kts 178°
2026-05-06 16:23 50.03335 8.52593 347 ft 5 kts 178°
2026-05-06 16:23 50.03070 8.52598 340 ft 78 kts 180°
2026-05-06 16:24 50.02263 8.52604 345 ft 151 kts 180°
2026-05-06 16:24 50.01060 8.52661 740 ft 181 kts 179°
2026-05-06 16:24 49.99794 8.52764 1683 ft 185 kts 181°
2026-05-06 16:24 49.98417 8.52803 1959 ft 207 kts 185°
2026-05-06 16:25 49.96928 8.52920 2144 ft 224 kts 171°
2026-05-06 16:25 49.95538 8.54145 2430 ft 241 kts 134°
2026-05-06 16:25 49.94713 8.56461 2843 ft 249 kts 114°
2026-05-06 16:25 49.94102 8.58968 3465 ft 247 kts 111°
2026-05-06 16:26 49.93720 8.61544 4075 ft 249 kts 96°
2026-05-06 16:26 49.93656 8.64333 4345 ft 266 kts 92°
2026-05-06 16:26 49.93655 8.67283 4670 ft 279 kts 94°
2026-05-06 16:26 49.93324 8.70217 5242 ft 275 kts 115°
2026-05-06 16:27 49.92227 8.72549 5766 ft 270 kts 144°
2026-05-06 16:27 49.90615 8.73951 6402 ft 264 kts 157°
2026-05-06 16:27 49.88986 8.75314 6962 ft 267 kts 148°
2026-05-06 16:27 49.87648 8.77315 7552 ft 272 kts 129°
2026-05-06 16:28 49.86639 8.79850 7946 ft 282 kts 120°
2026-05-06 16:28 49.85709 8.82577 8395 ft 288 kts 120°
2026-05-06 16:28 49.84781 8.85331 8988 ft 289 kts 120°
2026-05-06 16:28 49.83828 8.88082 9569 ft 291 kts 121°
2026-05-06 16:29 49.82848 8.90847 10025 ft 297 kts 121°
2026-05-06 16:29 49.81822 8.93705 10277 ft 310 kts 121°
2026-05-06 16:29 49.80747 8.96678 10518 ft 323 kts 121°
2026-05-06 16:29 49.79623 8.99775 10736 ft 336 kts 121°
2026-05-06 16:30 49.78456 9.02981 10981 ft 348 kts 121°
2026-05-06 16:30 49.78067 9.04048 11040 ft 352 kts 121°
2026-05-06 16:30 49.76144 9.09843 11407 ft 373 kts 111°
2026-05-06 16:30 49.75423 9.13758 11681 ft 382 kts 105°
2026-05-06 16:31 49.74662 9.17666 11972 ft 386 kts 115°
2026-05-06 16:31 49.73317 9.21266 12364 ft 387 kts 127°
2026-05-06 16:31 49.71673 9.24566 12810 ft 388 kts 132°
2026-05-06 16:31 49.70507 9.26667 13098 ft 389 kts 133°
2026-05-06 16:32 49.68682 9.29792 13540 ft 391 kts 134°
2026-05-06 16:32 49.66835 9.32895 13931 ft 393 kts 134°
2026-05-06 16:32 49.64987 9.36020 14296 ft 395 kts 134°
2026-05-06 16:32 49.63124 9.39161 14664 ft 397 kts 136°
2026-05-06 16:33 49.61022 9.41901 15064 ft 396 kts 146°
2026-05-06 16:33 49.58754 9.44304 15457 ft 397 kts 149°
2026-05-06 16:33 49.56410 9.46565 15863 ft 398 kts 150°
2026-05-06 16:34 49.51606 9.50916 16601 ft 402 kts 152°
2026-05-06 16:34 49.49183 9.53078 16989 ft 404 kts 152°
2026-05-06 16:34 49.46779 9.55233 17373 ft 406 kts 152°